AirNav   Everest Fuels
 
 975 users online  

KGPM Grand Prairie Municipal Airport
Grand Prairie, Texas, USA

GOING TO GRAND PRAIRIE?


FAA INFORMATION EFFECTIVE 03 NOVEMBER 2022

Location

FAA Identifier: GPM
Lat/Long: 32-41-55.6000N 097-02-48.9000W
32-41.926667N 097-02.815000W
32.6987778,-97.0469167
(estimated)
Elevation: 590 ft. / 180 m (estimated)
Variation: 03E (2025)
From city: 4 miles SW of GRAND PRAIRIE, TX
Time zone: UTC -6 (UTC -5 during Daylight Saving Time)
Zip code: 75052

Airport Operations

Airport use: Open to the public
Activation date: 06/1968
Control tower: yes
ARTCC: FORT WORTH CENTER
FSS: FORT WORTH FLIGHT SERVICE STATION
NOTAMs facility: GPM (NOTAM-D service available)
Attendance: MARCH-OCTOBER MON-SAT 0700-2100, NOVEMBER-FEBRUARY MON-SAT 0800-1800, ALL SUN 0800-1800
Pattern altitude: 1202 ft. MSL
TPA: 812 FT AGL FIXED WING, 612 FT AGL ROTARY WING.
Wind indicator: lighted
Segmented circle: yes
Lights: MIRL RWY 18/36 PRESET LOW INTST; TO INCR INTST & ACTVT REIL RWY 36 AFT ATCT CLOSED - CTAF. VASI RWYS 18 & 36 OPRS CONSLY.
Beacon: white-green (lighted land airport)
Operates sunset to sunrise.

Airport Communications

CTAF: 128.55
UNICOM: 123.075
WX AWOS-3P: 118.475 (972-606-1433)
GRAND PRAIRIE GROUND: 121.15 [0700-2100 DALGT TIME; 0800-1800 STANDARD TIME]
GRAND PRAIRIE TOWER: 128.55 [0700-2100 DALGT TIME; 0800-1800 STANDARD TIME]
REGIONAL APPROACH: 135.975
REGIONAL DEPARTURE: 135.975
DODJE STAR: 125.2 125.9
GARLAND DP: 135.975
JOE POOL DP: 135.975
KNEAD STAR: 135.975
LIKES STAR: 125.8 ;SOUTH 135.975 ;NORTH
MOTZA STAR: 118.1 ;SOUTH 125.8 ;NORTH
NANDR RNAV DP: 135.975
REEKO STAR: 125.2
SANGR STAR: 124.3
SASIE STAR: 124.3
SLUGG STAR: 125.8 ;SOUTH 135.975 ;NORTH
SWVAY STAR: 135.975
WESAT STAR: 118.1 ;SOUTH 125.8 ;NORTH
WX ASOS at GKY (3 nm SW): 127.375 (817-557-0251)
WX ASOS at RBD (9 nm E): PHONE 214-330-5317
WX ASOS at DFW (12 nm N): PHONE 972-615-2608
WX AWOS-3 at 49T (13 nm E): 135.425 (214-670-1243)
WX ASOS at DAL (13 nm NE): PHONE 214-353-1551
WX AWOS-3PT at FWS (15 nm SW): 120.025 (817-426-4172)
WX AWOS-3 at JWY (16 nm SE): 119.575 (972-937-4747)
WX ASOS at FTW (17 nm NW): PHONE 817-740-3346
WX AWOS-3PT at LNC (18 nm SE): 118.975 (972-227-0471)
WX AWOS-3PT at ADS (19 nm NE): PHONE 972-386-4855

Nearby radio navigation aids

VOR radial/distance  VOR name  Freq  Var
TTTr176/10.2MAVERICK VOR/DME113.1006E
FUZr144/13.2RANGER VORTAC115.7006E
CVEr206/13.6COWBOY VOR/DME116.2006E

 
NDB name  Hdg/Dist  Freq  Var  ID
MESQUITE253/27.024803EPQF .--. --.- ..-.

Airport Services

Fuel available: 100LL JET-A
Parking: hangars and tiedowns
Airframe service: MAJOR
Powerplant service: MAJOR
Bottled oxygen: NONE
Bulk oxygen: HIGH/LOW

Runway Information

Runway 18/36

Dimensions: 4001 x 75 ft. / 1220 x 23 m
Surface: concrete, in good condition
Weight bearing capacity: 
Single wheel: 30.0
Runway edge lights: medium intensity
RUNWAY 18  RUNWAY 36
Latitude: 32-42.256870N32-41.597050N
Longitude: 097-02.812673W097-02.817323W
Elevation: 581.5 ft.572.8 ft.
Traffic pattern: leftright
Runway heading: 177 magnetic, 180 true357 magnetic, 000 true
Markings: nonprecision, in good conditionnonprecision, in good condition
Visual slope indicator: 4-box VASI on left (3.00 degrees glide path)4-box VASI on left (4.00 degrees glide path)
Runway end identifier lights: yes
Touchdown point: yes, no lightsyes, no lights
Obstructions: 40 ft. trees, 1040 ft. from runway, 225 ft. both sides of centerline, 21:1 slope to clear21 ft. road, 630 ft. from runway, 20:1 slope to clear

Helipad H1

Dimensions: 50 x 50 ft. / 15 x 15 m
Surface: concrete, in good condition
Runway edge lights: PERI
Latitude: 32-42.130000N
Longitude: 097-02.870000W
Elevation: 590.0 ft.
Traffic pattern: leftleft
Markings: basic, in fair condition

Airport Ownership and Management from official FAA records

Ownership: Publicly-owned
Owner: CITY OF GRAND PRAIRIE
PO BOX 534045
GRAND PRAIRIE, TX 75053-4045
Phone 972-237-8015
Manager: MARK DIVITA
3116 S GT SOUTHWEST PKWY
GRAND PRAIRIE, TX 75052-7238
Phone (972) 237-7591
MDIVITA@GPTX.ORG

Airport Operational Statistics

Aircraft based on the field: 280
Single engine airplanes: 265
Multi engine airplanes: 13
Jet airplanes: 1
Helicopters: 1
    
Aircraft operations: avg 281/day *
59% local general aviation
39% transient general aviation
2% military
<1% air taxi
* for 12-month period ending 31 December 2018

Additional Remarks

EXTSV HEL TFC WEST SIDE OF ARPT.
FOR CD WHEN ATCT IS CLSD CTC REGIONAL APCH AT 972-615-2799.
WEST GRASS FOR ROTARY WING USE ONLY.

Instrument Procedures

NOTE: All procedures below are presented as PDF files. If you need a reader for these files, you should download the free Adobe Reader.

NOT FOR NAVIGATION. Please procure official charts for flight.
FAA instrument procedures published for use from 03 November 2022 at 0901Z to 01 December 2022 at 0900Z.

 
STARs - Standard Terminal Arrivals
DODJE SIX   2 pages: [1] [2] (747KB)
MOTZA ONE   2 pages: [1] [2] (477KB)
REEKO THREE (RNAV)   download (208KB)
SASIE SIX   2 pages: [1] [2] (498KB)
SWVAY FOUR (RNAV)   download (235KB)
TRUUK TWO (RNAV)   download (215KB)
WESAT TWO (RNAV)   download (203KB)
 
IAPs - Instrument Approach Procedures
RNAV (GPS) RWY 36   download (154KB)
VOR RWY 36   download (170KB)
NOTE: Special Alternate Minimums apply   download (116KB)
 
Departure Procedures
DALLAS ONE   2 pages: [1] [2] (370KB)
GARLAND THREE   2 pages: [1] [2] (354KB)
JOE POOL FIVE   2 pages: [1] [2] (562KB)
KINGDOM THREE   2 pages: [1] [2] (366KB)
KUSSO ONE (RNAV)   2 pages: [1] [2] (320KB)
NANDR ONE (RNAV)   2 pages: [1] [2] (286KB)
SWABR ONE (RNAV)   2 pages: [1] [2] (319KB)
TEXOMA FOUR   2 pages: [1] [2] (471KB)
WORTH NINE   2 pages: [1] [2] (434KB)
NOTE: Special Take-Off Minimums/Departure Procedures apply   download (299KB)

Other nearby airports with instrument procedures:

KGKY - Arlington Municipal Airport (3 nm SW)
KRBD - Dallas Executive Airport (9 nm E)
KDFW - Dallas-Fort Worth International Airport (12 nm N)
KDAL - Dallas Love Field Airport (13 nm NE)
KFWS - Fort Worth Spinks Airport (15 nm SW)
KJWY - Mid-Way Regional Airport (16 nm SE)
KFTW - Fort Worth Meacham International Airport (17 nm NW)
KLNC - Lancaster Regional Airport (18 nm SE)
KADS - Addison Airport (19 nm NE)
 
Loc | Ops | Rwys | IFR | FBO | Links
Com | Nav | Svcs | Stats | Notes

City of Fort Worth
 
Area around KGPM (Grand Prairie Municipal Airport)
 
Road maps at: MapQuest Bing Google
 
Aerial photo
WARNING: Photo may not be current or correct
Aerial photo of KGPM (Grand Prairie Municipal Airport)
Photo taken 16-Nov-2018
looking north-northeast.

Do you have a better or more recent aerial photo of Grand Prairie Municipal Airport that you would like to share? If so, please send us your photo.

 
Sectional chart

 
Airport diagram
CAUTION: Diagram may not be current
Diagram of KGPM (Grand Prairie Municipal Airport)
Download PDF
of official airport diagram from the FAA

 
Airport distance calculator
Flying to Grand Prairie Municipal Airport? Find the distance to fly.

From to KGPM

Sunrise and sunset
Times for 26-Nov-2022
 Local
(UTC-6)
 Zulu
(UTC)
Morning civil twilight06:4312:43
Sunrise07:0913:09
Sunset17:2223:22
Evening civil twilight17:4923:49

Current date and time
Zulu (UTC)  27-Nov-2022 02:24:37
Local (UTC-6)  26-Nov-2022 20:24:37
 
METAR
KGPM 270155Z AUTO 20007KT 10SM BKN034 OVC049 09/07 A2975 RMK AO2 T00920071
KGKY 
3nm SW 
270153Z 20007KT 10SM BKN040 OVC049 09/06 A2974 RMK AO2 SLP067 T00940061
KRBD 
9nm E 
270153Z 22007G19KT 10SM BKN048 09/06 A2973 RMK AO2 SLP065 T00890061
KDFW 
12nm N 
270153Z 22011KT 10SM -RA BKN034 BKN110 09/07 A2971 RMK AO2 RAB46 SLP058 P0000 T00940072
KDAL 
13nm NE 
270153Z 23008KT 10SM FEW032 SCT040 BKN050 OVC130 09/07 A2973 RMK AO2 SLP065 T00940072
KFWS 
15nm SW 
270155Z AUTO 21010KT 10SM BKN036 OVC047 09/06 A2975 RMK AO2 T00910065
KJWY 
16nm SE 
270155Z AUTO 21012KT 10SM OVC034 09/06 A2976 RMK AO2 T00860060
KFTW 
18nm NW 
270153Z AUTO 22009KT 10SM OVC034 09/08 A2972 RMK AO2 RAB25E45 SLP063 P0000 T00890078
KLNC 
18nm SE 
270155Z AUTO 22008KT 10SM BKN032 OVC037 09/06 A2976 RMK AO2 T00900055
KADS 
20nm NE 
270153Z 22008KT 13SM SCT020 BKN031 10/07 A2972
TAF
KGKY 
3nm SW 
262100Z 2621/2718 24010KT 4SM -RA BR OVC012 FM262200 26015KT P6SM VCSH BKN015 FM270000 27017KT P6SM BKN022 FM270600 25012KT P6SM SCT027 FM271500 31008KT P6SM BKN035
KDFW 
12nm N 
262100Z 2621/2724 24014KT 5SM BR OVC012 TEMPO 2621/2623 2SM -RA BR BKN008 FM262300 26015KT P6SM VCSH BKN015 FM270000 27017KT P6SM BKN022 FM270600 25012KT P6SM SCT027 FM271500 31008KT P6SM BKN035
KDAL 
13nm NE 
262100Z 2621/2718 24014KT 5SM BR OVC012 TEMPO 2621/2623 2SM -RA BR BKN008 FM262300 26015KT P6SM VCSH BKN015 FM270000 27017KT P6SM BKN022 FM270600 25012KT P6SM SCT027 FM271500 31008KT P6SM BKN035
KFTW 
18nm NW 
262100Z 2621/2718 24014KT 5SM BR OVC012 TEMPO 2621/2623 2SM -RA BR BKN008 FM262300 26015KT P6SM VCSH BKN015 FM270000 27017KT P6SM BKN022 FM270600 25012KT P6SM SCT027 FM271500 31008KT P6SM BKN035
NOTAMs
Click for the latest NOTAMs
NOTAMs are issued by the DoD/FAA and will open in a separate window not controlled by AirNav.

 

 
 

FBO, Fuel Providers, and Aircraft Ground Support

  
 Business Name 
 
 Contact 
 
 Services / Description 
 
Fuel Prices
 
Comments
  
 Aviator Air Flight School
972-988-8609
[web site]
[email]

Like us on facebook
Aviation fuel, Aircraft parking (ramp or tiedown), Passenger terminal and lounge, Pilot school (FAR Part 141), Flight training, ...
 
Courtesy car  
 
More info about Aviator Air Flight School
Avfuel
100LL Jet A
FS $5.78 $6.07 
GUARANTEED
 
   1 read write
 City of Grand Prairie
972-237-7591
972-237-7592
[web site]
[email]
Airport management, Aviation fuel, Aircraft parking (ramp or tiedown), Hangar leasing / sales, Pilots lounge / snooze room, Public telephone, Internet access, ...

More info about City of Grand Prairie
Avfuel
100LL Jet A
SS $5.37 $5.69 
GUARANTEED
 
   write
FS=Full service
SS=Self service
Update Fuel Prices
 

Aviation Businesses, Services, and Facilities

  
 Business Name 
 
 Contact 
 
 Services / Description 
 
Distance
 
Comments
  
 J&G Aviation, LLC
817-881-5182
817-304-3520
[web site]
[email]
Aircraft maintenance

More info about J&G Aviation, LLC
on airport  
   write
 

Where to Eat: Catering, Restaurants, Food shops

  
 Business Name 
 
 Contact 
 
 Services / Description 
 
Distance
 
Comments
  
 Radial Engine Cafe
972-595-5420 Restaurant

More info about Radial Engine Cafe
on airport  
   write
 

Would you like to see your business listed on this page?

 If your business provides an interesting product or service to pilots, flight crews, aircraft, or users of the Grand Prairie Municipal Airport, you should consider listing it here.  To start the listing process, click on the button below
 
Add a business
 

Other Pages about Grand Prairie Municipal Airport

www.gptx.org/...
 
Update a link
 
Copyright © AirNav, LLC. All rights reserved. Privacy Policy  Contact